GOKTURK 1A

Last updated on Thu Jul 03 2025 00:02:30 GMT+0000 (Coordinated Universal Time)

1 41875U 16073A 25183.63281047 .00000268 00000+0 61693-4 0 9996 2 41875 98.1116 78.2657 0001462 85.1546 274.9822 14.62740661457726
UTC large
Height (km)
Speed (km/s)
/
Latitude / Longitude
Inclination (degrees)
Orbital Period (minutes)
Azimuth
Elevation
Range (km)
Doppler Factor

Next 0 passes for location: London (51.5072 / 0.1276)

Sorry there are no passes over London.